Miscellaneous Local Product
Issued by NWS Hastings, NE

Home | Current Version | Previous Version | Graphics & Text | Print | Product List | Glossary On
Versions: 1 2 3 4 5 6 7 8 9 10 11 12 13 14 15 16 17 18 19 20 21 22 23 24 25 26 27 28 29 30 31 32 33 34 35 36 37 38 39 40 41 42 43 44 45 46 47 48 49 50
000
AXUS43 KGID 191902
MISGRI

GID CWA HOURLY WEATHER ROUNDUP
NATIONAL WEATHER SERVICE HASTINGS NE
100 PM CST FRI DEC 19 2014

NOTE: "FAIR" INDICATES FEW OR NO CLOUDS BELOW 12,000 FEET WITH NO
SIGNIFICANT WEATHER AND/OR OBSTRUCTIONS TO VISIBILITY.

...SOUTH CENTRAL NEBRASKA...

CITY           SKY/WX    TMP DP  RH WIND       PRES   REMARKS
GRAND ISLAND   CLOUDY    30  28  92 SW13      30.12F FOG     WCI  20
HASTINGS       CLOUDY    34  28  79 S10       30.11F WCI  26
KEARNEY        CLOUDY    28  27  93 S14       30.09F WCI  17
ORD            NOT AVBL
YORK           CLOUDY    32  30  93 SW10      30.15F WCI  24
AURORA         CLOUDY    33  31  94 S9        30.12F WCI  25
LEXINGTON      SUNNY     31  28  89 S7        30.06F WCI  24
HOLDREGE       CLOUDY    28  28  96 S10       30.09F FOG     WCI  19
HEBRON         CLOUDY    33  29  86 S9        30.17F FOG     WCI  25

...NEBRASKA PANHANDLE...

CITY           SKY/WX    TMP DP  RH WIND       PRES   REMARKS
CHADRON        SUNNY     38  22  52 W13       29.99F WCI  30
ALLIANCE       SUNNY     34  25  69 W14       29.98F WCI  25
SCOTTSBLUFF    SUNNY     30  23  75 W6        30.01F WCI  24
SIDNEY         SUNNY     40  24  53 W17       30.02F WCI  31

...WESTERN AND NORTH CENTRAL NEBRASKA...

CITY           SKY/WX    TMP DP  RH WIND       PRES   REMARKS
VALENTINE      SUNNY     36  23  59 W9        29.98F WCI  29
AINSWORTH      SUNNY     32  25  75 SW7       29.99F WCI  26
ONEILL         CLOUDY    27  27 100 S6        30.05F FOG     WCI  21
BROKEN BOW     SUNNY     32  25  75 S8        30.04F WCI  25
IMPERIAL       SUNNY     37  27  67 W13       30.06F WCI  29
NORTH PLATTE   SUNNY     35  24  64 W9        30.04F WCI  28
MCCOOK         SUNNY     36  31  82 SW5       30.07F WCI  32

...EASTERN NEBRASKA...

CITY           SKY/WX    TMP DP  RH WIND       PRES   REMARKS
NORFOLK        CLOUDY    33  29  85 S13       30.10F WCI  24
SO SIOUX CITY  CLOUDY    34  28  79 S13       30.16F WCI  25
TEKAMAH        CLOUDY    35  29  78 S10       30.18F WCI  27
COLUMBUS       CLOUDY    32  25  74 S10       30.15F WCI  24
ALBION         CLOUDY    31  28  88 S9        30.11F FOG     WCI  22
OMAHA EPPLEY   CLOUDY    33  29  85 S13       30.20F FOG     WCI  24
OFFUTT AFB     CLOUDY    33  29  85 S12       30.19F WCI  24
MILLARD        CLOUDY    34  30  85 S7        30.20F FOG     WCI  28
LINCOLN        CLOUDY    34  29  82 S13       30.19F WCI  25
NEBRASKA CITY  CLOUDY    31  30  96 S10       30.21F WCI  23
BEATRICE       CLOUDY    32  30  91 S9        30.19F FOG     WCI  24
FALLS CITY     CLOUDY    30  26  85 S9        30.23F WCI  22

...NORTHERN KANSAS...

CITY           SKY/WX    TMP DP  RH WIND       PRES   REMARKS
GOODLAND       SUNNY     46  23  40 W10       30.09F
HILL CITY      SUNNY     43  27  53 S5        30.11F
NORTON         CLEAR     39  27  60 S5        30.08F
PHILLIPSBURG   MOSUNNY   37  34  87 SW3       30.14F
SMITH CENTER   CLOUDY    37  34  87 SW12      30.14F WCI  30
BELOIT         CLOUDY    34  30  86 SE12      30.17F WCI  25
HAYS           MOSUNNY   43  30  61 S12       30.14F
RUSSELL        CLOUDY    37  35  92 S12       30.14F WCI  29
CONCORDIA      CLOUDY    32  29  88 S15       30.18F WCI  22
SALINA         CLOUDY    33  29  85 S9        30.21F WCI  25
TOPEKA         CLOUDY    32  29  88 CALM      30.25F



USA.gov is the U.S. government's official web portal to all federal, state and local government web resources and services.